Location: *
(32.8667°N, 13.1833°E)
Time: 09:14:41
(UTC+00:00)

ERS-1 Rocket - Pass Details

Date: 18 July 2019
Orbit: 752 x 759 km, 98.5° (Epoch: 24 August)

Event Time Altitude Azimuth Distance (km) Brightness Sun altitude
Exits shadow 19:57:31 26° 91° (E) 1,453 4.0 -18.7°
Maximum altitude 19:58:34 29° 70° (ENE) 1,382 4.1 -18.8°
Drops below altitude 10° 20:02:50 10° 12° (NNE) 2,291 5.9 -19.5°
Sets 20:05:24 0° 1° (N) 3,219 6.9 -19.9°
